Location: Chuathbaluk
(61.5726°N, 159.2454°W)
Time: 07:39:58
(UTC+00:00)

XW-2F - Pass Details

Date: 18 January 2021
Orbit: 499 x 520 km, 97.5° (Epoch: 09 March)

Event Time Altitude Azimuth Distance (km) Brightness Sun altitude
Rises 16:37:44 0° 19° (NNE) 2,659 ? -19.0°
Reaches altitude 10° 16:39:55 10° 26° (NNE) 1,769 ? -18.7°
Maximum altitude 16:43:35 43° 99° (E) 743 ? -18.3°
Drops below altitude 10° 16:47:13 10° 172° (S) 1,761 ? -17.9°
Sets 16:49:24 0° 179° (S) 2,646 ? -17.6°
